Voltar ao catálogo

STARLINK-3146

AtivoComunicaçõesVLEO
NORAD 49414·PAYLOAD·🇺🇸 United States

Lançado Nov 13, 2021 de Cape Canaveral Space Force Station

Loading…

Próximas Passagens (próximas 24 horas)

TLE

AtualizadoSource: CelesTrak SupGP

Época: Sep 14, 2026, 21:05 UTC

1 49414C 21104G   26257.87895833 -.00007069  00000+0 -21454-3 0  2572
2 49414  53.1576  88.1043 0001364  84.1322 108.7476 15.33544986    11

Acompanhe STARLINK-3146 em tempo real com AllMySat

Download on the App Store